Location: Caltech
(34.1382°N, 118.1253°W)
Time: 07:35:54
(UTC-07:00)

Cosmos 1697 Rocket - Visible Passes

Search period start: 22 June 2018 00:00
Search period end: 02 July 2018 00:00
Orbit: 831 x 845 km, 71.0° (Epoch: 21 June)

Date Brightness Start Highest point End Pass type
(mag) Time Alt. Az. Time Alt. Az. Time Alt. Az.
22 Jun 4.1 03:26:13 17° SSE 03:29:34 31° ESE 03:34:29 10° NE visible
22 Jun 3.7 05:08:29 10° WSW 05:13:25 31° WNW 05:18:23 10° N visible
23 Jun 4.2 03:10:47 20° SE 03:13:26 28° ESE 03:18:13 10° NE visible
23 Jun 3.6 04:52:32 12° SW 04:57:14 33° WNW 05:02:19 10° N visible
24 Jun 4.2 02:55:20 21° SE 02:57:19 26° ESE 03:01:56 10° NE visible
24 Jun 3.5 04:37:04 16° WSW 04:41:03 36° WNW 04:46:14 10° N visible
25 Jun 4.3 02:39:49 22° ESE 02:41:12 24° E 02:45:39 10° NE visible
25 Jun 3.4 04:21:34 20° WSW 04:24:52 38° WNW 04:30:08 10° N visible
26 Jun 4.3 02:24:16 21° ESE 02:25:04 22° E 02:29:19 10° NE visible
26 Jun 3.3 04:06:00 26° WSW 04:08:41 41° WNW 04:14:02 10° N visible
27 Jun 4.5 02:08:40 20° ESE 02:08:57 20° E 02:13:00 10° NE visible
27 Jun 3.2 03:50:25 32° WSW 03:52:30 45° WNW 03:57:56 10° N visible
28 Jun 4.6 01:53:03 19° E 01:53:03 19° E 01:56:38 10° ENE visible
28 Jun 3.1 03:34:47 39° WSW 03:36:20 49° WNW 03:41:49 10° N visible
29 Jun 4.7 01:37:22 17° E 01:37:22 17° E 01:40:16 10° ENE visible
29 Jun 3.0 03:19:07 46° WSW 03:20:09 53° WNW 03:25:42 10° N visible
30 Jun 4.9 01:21:40 15° E 01:21:40 15° E 01:23:51 10° ENE visible
30 Jun 2.8 03:03:24 54° W 03:03:59 57° WNW 03:09:35 10° NNE visible
01 Jul 5.0 01:05:56 13° E 01:05:56 13° E 01:07:23 10° ENE visible
01 Jul 2.8 02:47:40 62° WNW 02:47:49 62° WNW 02:53:27 10° NNE visible
